Terminal Aerodrome Forecast
Issued by NWS Boston, MA

Home | Current Version | Previous Version | Text Only | Print | Product List | Glossary On
Versions: 1 2 3 4 5 6 7 8 9 10 11 12 13 14 15 16 17 18 19 20 21 22 23 24 25 26 27 28 29 30 31 32 33 34 35 36 37 38
000
FTUS41 KBOX 231730
TAFBDL
TAF
KBDL 231730Z 2318/2424 05007KT P6SM BKN050
     FM232200 06006KT P6SM SCT200
     FM240200 00000KT P6SM SCT250
     FM240600 00000KT P6SM SCT050
     FM241100 00000KT P6SM BKN050
     FM241800 03004KT P6SM SCT250=

USA.gov is the U.S. government's official web portal to all federal, state and local government web resources and services.